Back to catalog

STARLINK-11569

AliveCommunicationsVLEO
NORAD 62910·PAYLOAD·🇺🇸 United States

Launched Feb 8, 2025 from Cape Canaveral Space Force Station

Loading…

Next Passes (next 24 hours)

TLE

FreshSource: CelesTrak SupGP

Epoch: Sep 14, 2026, 15:23 UTC

1 62910C 25027D   26257.64145833  .00065913  00000+0  51217-3 0  2579
2 62910  43.0000 288.6098 0001655 268.6733 343.4908 15.70795387    14

Track STARLINK-11569 in real time with AllMySat

Download on the App Store